Location: Cluj-Napoca
(46.7712°N, 23.6236°E)
Time: 01:43:40
(UTC+03:00)

ISS - Pass Details

Date: 02 August 2020
Orbit: 418 x 420 km, 51.6° (Epoch: 11 August)

Event Time Altitude Azimuth Distance (km) Brightness Sun altitude
Rises 22:12:04 0° 287° (WNW) 2,371 1.4 -11.6°
Reaches altitude 10° 22:14:37 10° 268° (W) 1,503 -0.3 -12.0°
Maximum altitude 22:16:57 18° 224° (SW) 1,121 -1.6 -12.3°
Enters shadow 22:19:02 11° 183° (S) 1,429 -1.4 -12.5°
